Santee, CA

4:52 PM PDT on August 19, 2017 (GMT -0700)
Gillespie

Weather History for KSEE - October, 2012

Change the Weather History Date:

Sunday, October 28, 2012

  Actual Average Record
Temperature  
Mean Temperature 68 °F -  
Max Temperature 89 °F 77 °F 98 °F (2008)
Min Temperature 46 °F 51 °F 42 °F (1982)
Cooling Degree Days 2    
Growing Degree Days 18 (Base 50)    
Moisture  
Dew Point 30 °F    
Average Humidity 38    
Maximum Humidity 53    
Minimum Humidity 8    
Precipitation  
Precipitation 0.00 in - - ()
Sea Level Pressure  
Sea Level Pressure 29.97 in    
Wind  
Wind Speed 1 mph (West)    
Max Wind Speed 8 mph    
Max Gust Speed -    
Visibility 10 miles    
Events      
Averages and records for this station are not official NWS values.
T = Trace of Precipitation, MM = Missing Value Source: NWS Daily Summary

Daily Weather History Graph

Daily Weather History Graph

Search for Another Location

Airport or City:

Trip Planner

Search our weather history database for the weather conditions in past years. The results will help you decide how hot, cold, wet, or windy it might be!

Date:

Astronomy

Oct. 28, 2012 Rise Set
Actual Time 7:02 AM PDT 5:59 PM PDT
Civil Twilight 6:37 AM PDT 6:25 PM PDT
Nautical Twilight 6:08 AM PDT 6:54 PM PDT
Astronomical Twilight 5:39 AM PDT 7:23 PM PDT
Moon 5:20 PM PDT (10/28) 6:01 AM PDT (10/28)
Length of Visible Light 11h 47m
Length of Day
10h 57m
Waxing Gibbous, 99% of the Moon is Illuminated
Oct 28
Waxing Gibbous
Oct 29
Full
Nov 6
Last Quarter
Nov 13
New
Nov 20
First Quarter

Hourly Weather History & Observations

Time (PDT) Temp. Dew Point Humidity Pressure Visibility Wind Dir Wind Speed Gust Speed Precip Events Conditions
12:15 AM 53.6 °F 28.4 °F 38% 29.95 in 10.0 mi Calm Calm - N/A   Clear
12:35 AM 53.6 °F 28.4 °F 38% 29.95 in 10.0 mi Calm Calm - N/A   Clear
12:55 AM 53.6 °F 30.2 °F 41% 29.95 in 10.0 mi North - - N/A   Clear
1:15 AM 53.6 °F 28.4 °F 38% 29.95 in 10.0 mi Calm Calm - N/A   Clear
1:35 AM 51.8 °F 30.2 °F 44% 29.94 in 10.0 mi NW 3.5 mph - N/A   Clear
1:55 AM 51.8 °F 30.2 °F 44% 29.94 in 10.0 mi WNW 4.6 mph - N/A   Clear
2:15 AM 51.8 °F 30.2 °F 44% 29.94 in 10.0 mi Calm Calm - N/A   Clear
2:35 AM 51.8 °F 30.2 °F 44% 29.94 in 10.0 mi Calm Calm - N/A   Clear
2:55 AM 51.8 °F 28.4 °F 41% 29.94 in 10.0 mi Calm Calm - N/A   Clear
3:15 AM 50.0 °F 28.4 °F 43% 29.93 in 10.0 mi WNW 3.5 mph - N/A   Clear
3:35 AM 48.2 °F 28.4 °F 46% 29.93 in 10.0 mi Calm Calm - N/A   Clear
3:55 AM 48.2 °F 30.2 °F 50% 29.93 in 10.0 mi Calm Calm - N/A   Clear
4:15 AM 48.2 °F 30.2 °F 50% 29.93 in 10.0 mi Calm Calm - N/A   Clear
4:35 AM 48.2 °F 28.4 °F 46% 29.93 in 10.0 mi Calm Calm - N/A   Clear
4:55 AM 48.2 °F 28.4 °F 46% 29.93 in 10.0 mi Calm Calm - N/A   Clear
5:15 AM 48.2 °F 30.2 °F 50% 29.93 in 10.0 mi Calm Calm - N/A   Clear
5:35 AM 48.2 °F 30.2 °F 50% 29.93 in 10.0 mi Calm Calm - N/A   Clear
5:55 AM 46.4 °F 30.2 °F 53% 29.93 in 10.0 mi Calm Calm - N/A   Clear
6:15 AM 46.4 °F 30.2 °F 53% 29.94 in 10.0 mi Calm Calm - N/A   Clear
7:47 AM 46.4 °F 30.2 °F 53% 29.93 in 25.0 mi Calm Calm - N/A   Partly Cloudy
8:47 AM 55.4 °F 30.2 °F 38% 29.97 in 25.0 mi Calm Calm - N/A   Partly Cloudy
10:47 AM 77.0 °F 32.0 °F 19% 29.99 in 25.0 mi Calm Calm - N/A   Partly Cloudy
11:47 AM 86.0 °F 23.0 °F 10% 29.97 in 25.0 mi Calm Calm - N/A   Partly Cloudy
12:48 PM 89.6 °F 21.2 °F 8% 29.93 in 25.0 mi Variable 6.9 mph - N/A   Partly Cloudy
1:47 PM 87.8 °F 28.4 °F 12% 29.92 in 25.0 mi Variable 6.9 mph - N/A   Partly Cloudy
3:47 PM 84.2 °F 30.2 °F 14% 29.93 in 25.0 mi SW 5.8 mph - N/A   Partly Cloudy
4:47 PM 82.4 °F 37.4 °F 20% 29.93 in 25.0 mi SW 8.1 mph - N/A   Partly Cloudy
5:47 PM 77.0 °F 30.2 °F 18% 29.96 in 25.0 mi South 3.5 mph - N/A   Scattered Clouds
7:54 PM 64.4 °F 33.8 °F 32% 30.00 in 10.0 mi Calm Calm - N/A   Clear
9:15 PM 59.0 °F 33.8 °F 39% 30.02 in 10.0 mi Calm Calm - N/A   Clear
9:35 PM 57.2 °F 33.8 °F 41% 30.03 in 10.0 mi Calm Calm - N/A   Clear
9:55 PM 57.2 °F 33.8 °F 41% 30.03 in 10.0 mi WNW 3.5 mph - N/A   Clear
10:15 PM 55.4 °F 33.8 °F 44% 30.03 in 10.0 mi WNW 3.5 mph - N/A   Clear
10:35 PM 55.4 °F 33.8 °F 44% 30.04 in 10.0 mi Calm Calm - N/A   Clear
10:55 PM 55.4 °F 32.0 °F 41% 30.04 in 10.0 mi Calm Calm - N/A   Clear
11:15 PM 55.4 °F 32.0 °F 41% 30.05 in 10.0 mi Calm Calm - N/A   Clear
11:35 PM 55.4 °F 32.0 °F 41% 30.05 in 10.0 mi Calm Calm - N/A   Clear
11:55 PM 53.6 °F 32.0 °F 44% 30.05 in 10.0 mi Calm Calm - N/A   Clear